When you browse on this site, cookies collect data to enhance your experience and personalize the content and advertising you see.
Visit our Privacy Policy to learn more. By continuing to use the site, you agree to this use of cookies and data.
  • In Portugal
  • List of Countries
  • For 7 days
  • Water Temperature
  • Satellite Maps
  • Weather Map
  • Weather Widgets
  • user-avatar
    Login

    Hourly Weather Perhlyay

    Today, 19 June, Wednesday

    Time Temperature Precipitation Wind Pressure Humidity
    00:00 +16°C° 0.1 mm 2 mps 739 mmHg 89%
    01:00 +16°C° 0 mm 2 mps 739 mmHg 90%
    02:00 +15°C° 0 mm 2 mps 739 mmHg 92%
    03:00 +15°C° 0 mm 2 mps 739 mmHg 93%
    04:00 +14°C° 0 mm 3 mps 740 mmHg 92%
    05:00 +16°C° 0 mm 3 mps 740 mmHg 91%
    06:00 +15°C° 0 mm 4 mps 740 mmHg 89%
    07:00 +18°C° 0.1 mm 4 mps 740 mmHg 85%
    08:00 +19°C° 0.1 mm 4 mps 740 mmHg 80%
    09:00 +21°C° 0.1 mm 4 mps 740 mmHg 75%
    10:00 +22°C° 0.4 mm 4 mps 740 mmHg 72%
    11:00 +23°C° 0.4 mm 4 mps 740 mmHg 68%
    12:00 +23°C° 0.4 mm 4 mps 740 mmHg 64%
    13:00 +25°C° 0.2 mm 5 mps 741 mmHg 64%
    14:00 +25°C° 0.2 mm 5 mps 741 mmHg 64%
    15:00 +25°C° 0.2 mm 5 mps 741 mmHg 65%
    16:00 +25°C° 0.1 mm 4 mps 741 mmHg 69%
    17:00 +24°C° 0.1 mm 3 mps 741 mmHg 73%
    18:00 +24°C° 0.1 mm 3 mps 741 mmHg 77%
    19:00 +21°C° 0 mm 3 mps 741 mmHg 80%
    20:00 +20°C° 0 mm 2 mps 741 mmHg 82%
    21:00 +18°C° 0 mm 2 mps 741 mmHg 85%
    22:00 +17°C° 0 mm 2 mps 741 mmHg 86%
    23:00 +17°C° 0 mm 2 mps 742 mmHg 86%

    Tomorrow, 20 June, Thursday

    Time Temperature Precipitation Wind Pressure Humidity
    00:00 +16°C° 0 mm 2 mps 742 mmHg 87%
    01:00 +16°C° 0 mm 2 mps 742 mmHg 88%
    02:00 +16°C° 0 mm 2 mps 742 mmHg 89%
    03:00 +15°C° 0 mm 2 mps 742 mmHg 90%
    04:00 +16°C° 0 mm 2 mps 743 mmHg 89%
    05:00 +17°C° 0 mm 2 mps 743 mmHg 87%
    06:00 +18°C° 0 mm 2 mps 743 mmHg 86%
    07:00 +19°C° 0 mm 2 mps 743 mmHg 81%
    08:00 +21°C° 0 mm 3 mps 743 mmHg 77%
    09:00 +22°C° 0 mm 3 mps 744 mmHg 72%
    10:00 +24°C° 0 mm 3 mps 744 mmHg 67%
    11:00 +25°C° 0 mm 3 mps 744 mmHg 62%
    12:00 +26°C° 0 mm 3 mps 744 mmHg 57%
    13:00 +27°C° 0 mm 3 mps 744 mmHg 56%
    14:00 +27°C° 0 mm 3 mps 744 mmHg 55%
    15:00 +27°C° 0 mm 3 mps 744 mmHg 54%
    16:00 +27°C° 0 mm 2 mps 744 mmHg 58%
    17:00 +26°C° 0 mm 2 mps 744 mmHg 62%
    18:00 +26°C° 0 mm 1 mps 744 mmHg 66%
    19:00 +24°C° 0 mm 1 mps 744 mmHg 69%
    20:00 +22°C° 0 mm 1 mps 744 mmHg 73%
    21:00 +18°C° 0 mm 0 mps 744 mmHg 76%
    22:00 +18°C° 0 mm 0 mps 744 mmHg 76%
    23:00 +19°C° 0 mm 1 mps 744 mmHg 77%

    Day after tomorrow, 21 June, Friday

    Time Temperature Precipitation Wind Pressure Humidity
    00:00 +19°C° 0 mm 1 mps 745 mmHg 77%
    01:00 +18°C° 0 mm 1 mps 745 mmHg 79%
    02:00 +18°C° 0 mm 1 mps 745 mmHg 81%
    03:00 +16°C° 0 mm 2 mps 745 mmHg 83%
    04:00 +18°C° 0 mm 1 mps 745 mmHg 81%
    05:00 +19°C° 0 mm 1 mps 745 mmHg 80%
    06:00 +20°C° 0 mm 1 mps 746 mmHg 79%
    07:00 +22°C° 0 mm 1 mps 746 mmHg 75%
    08:00 +23°C° 0 mm 2 mps 746 mmHg 71%
    09:00 +25°C° 0 mm 2 mps 746 mmHg 66%
    10:00 +26°C° 0 mm 2 mps 746 mmHg 61%
    11:00 +27°C° 0 mm 2 mps 746 mmHg 56%
    12:00 +28°C° 0 mm 2 mps 746 mmHg 50%
    13:00 +28°C° 0 mm 2 mps 746 mmHg 50%
    14:00 +28°C° 0 mm 2 mps 746 mmHg 50%
    15:00 +28°C° 0 mm 2 mps 746 mmHg 50%
    16:00 +27°C° 0 mm 2 mps 746 mmHg 54%
    17:00 +27°C° 0 mm 1 mps 746 mmHg 58%
    18:00 +27°C° 0 mm 1 mps 746 mmHg 62%
    19:00 +25°C° 0 mm 1 mps 746 mmHg 63%
    20:00 +23°C° 0 mm 1 mps 746 mmHg 63%
    21:00 +22°C° 0 mm 1 mps 746 mmHg 64%
    22:00 +21°C° 0 mm 1 mps 746 mmHg 66%
    23:00 +20°C° 0 mm 1 mps 746 mmHg 69%

    22 June, Saturday

    Time Temperature Precipitation Wind Pressure Humidity
    00:00 +19°C° 0 mm 1 mps 746 mmHg 72%
    01:00 +19°C° 0 mm 1 mps 746 mmHg 73%
    02:00 +19°C° 0 mm 1 mps 746 mmHg 74%
    03:00 +18°C° 0 mm 1 mps 746 mmHg 75%
    04:00 +19°C° 0 mm 1 mps 746 mmHg 75%
    05:00 +20°C° 0 mm 1 mps 746 mmHg 75%
    06:00 +21°C° 0 mm 1 mps 746 mmHg 74%
    07:00 +23°C° 0 mm 1 mps 746 mmHg 71%
    08:00 +24°C° 0 mm 2 mps 746 mmHg 68%
    09:00 +26°C° 0 mm 2 mps 746 mmHg 65%
    10:00 +26°C° 0 mm 3 mps 747 mmHg 62%
    11:00 +27°C° 0 mm 3 mps 747 mmHg 58%
    12:00 +28°C° 0 mm 3 mps 747 mmHg 55%
    13:00 +28°C° 0 mm 2 mps 746 mmHg 55%
    14:00 +28°C° 0 mm 2 mps 746 mmHg 56%
    15:00 +28°C° 0 mm 3 mps 746 mmHg 56%
    16:00 +27°C° 0 mm 2 mps 746 mmHg 59%
    17:00 +27°C° 0 mm 2 mps 746 mmHg 62%
    18:00 +27°C° 0 mm 2 mps 746 mmHg 65%
    19:00 +25°C° 0 mm 2 mps 746 mmHg 68%
    20:00 +23°C° 0 mm 2 mps 746 mmHg 70%
    21:00 +21°C° 0 mm 2 mps 746 mmHg 73%
    22:00 +20°C° 0 mm 2 mps 746 mmHg 72%
    23:00 +20°C° 0 mm 2 mps 746 mmHg 72%

    23 June, Sunday

    Time Temperature Precipitation Wind Pressure Humidity
    00:00 +19°C° 0 mm 2 mps 746 mmHg 71%
    01:00 +19°C° 0 mm 2 mps 746 mmHg 74%
    02:00 +18°C° 0 mm 2 mps 746 mmHg 77%
    03:00 +18°C° 0 mm 2 mps 746 mmHg 80%
    04:00 +19°C° 0 mm 2 mps 746 mmHg 80%
    05:00 +20°C° 0 mm 2 mps 746 mmHg 80%
    06:00 +20°C° 0 mm 2 mps 746 mmHg 80%
    07:00 +22°C° 0 mm 3 mps 746 mmHg 76%
    08:00 +25°C° 0 mm 3 mps 746 mmHg 72%
    09:00 +26°C° 0 mm 3 mps 746 mmHg 68%
    10:00 +27°C° 0 mm 3 mps 746 mmHg 65%
    11:00 +28°C° 0 mm 4 mps 746 mmHg 61%
    12:00 +29°C° 0 mm 4 mps 746 mmHg 58%
    13:00 +29°C° 0 mm 4 mps 746 mmHg 58%
    14:00 +29°C° 0 mm 4 mps 746 mmHg 58%
    15:00 +29°C° 0 mm 4 mps 745 mmHg 58%
    16:00 +29°C° 0 mm 4 mps 745 mmHg 63%
    17:00 +28°C° 0 mm 3 mps 745 mmHg 67%
    18:00 +28°C° 0 mm 2 mps 745 mmHg 71%
    19:00 +26°C° 0 mm 2 mps 745 mmHg 75%
    20:00 +25°C° 0 mm 2 mps 745 mmHg 78%
    21:00 +23°C° 0 mm 2 mps 745 mmHg 82%
    22:00 +23°C° 0 mm 1 mps 745 mmHg 84%
    23:00 +22°C° 0 mm 1 mps 745 mmHg 86%

    24 June, Monday

    Time Temperature Precipitation Wind Pressure Humidity
    00:00 +22°C° 0 mm 1 mps 745 mmHg 88%
    01:00 +21°C° 0 mm 1 mps 745 mmHg 89%
    02:00 +21°C° 0 mm 1 mps 745 mmHg 90%
    03:00 +21°C° 0 mm 1 mps 745 mmHg 91%
    04:00 +22°C° 0 mm 1 mps 745 mmHg 90%
    05:00 +22°C° 0 mm 1 mps 745 mmHg 88%
    06:00 +23°C° 0 mm 1 mps 746 mmHg 86%
    07:00 +24°C° 0.2 mm 1 mps 746 mmHg 82%
    08:00 +26°C° 0.2 mm 1 mps 746 mmHg 78%
    09:00 +27°C° 0.2 mm 2 mps 746 mmHg 74%
    10:00 +28°C° 0.5 mm 2 mps 746 mmHg 69%
    11:00 +28°C° 0.5 mm 2 mps 745 mmHg 65%
    12:00 +29°C° 0.5 mm 2 mps 745 mmHg 60%
    13:00 +29°C° 0.1 mm 2 mps 745 mmHg 61%
    14:00 +29°C° 0.1 mm 2 mps 745 mmHg 61%
    15:00 +29°C° 0.1 mm 3 mps 745 mmHg 61%
    16:00 +29°C° 0.1 mm 2 mps 745 mmHg 64%
    17:00 +29°C° 0.1 mm 2 mps 744 mmHg 67%
    18:00 +28°C° 0.1 mm 2 mps 744 mmHg 70%
    19:00 +27°C° 0.1 mm 2 mps 744 mmHg 72%
    20:00 +25°C° 0.1 mm 2 mps 744 mmHg 73%
    21:00 +23°C° 0.1 mm 2 mps 744 mmHg 75%
    22:00 +23°C° 0 mm 1 mps 744 mmHg 76%
    23:00 +22°C° 0 mm 1 mps 743 mmHg 78%
    Show more